Overview Statistics Trail Chart Weather Telemetry Raw packets
 

This is the latest recevied weather packets stored in our database for station/object N6AMQ-1. If no packets are shown the sender has not sent any weather packets the latest 10 day(s).

<< 3 4 5 6 7 8 9 >>
Time Temp. Humidity Pressure Rain* Wind** Luminosity Snow
1788646504 25° C 40% 1013.9 hPa 0 mm - - -
1788645541 25.56° C 40% 1013.9 hPa 0 mm - - -
1788645303 25.56° C 39% 1013.9 hPa 0 mm - - -
1788645241 25.56° C 38% 1013.9 hPa 0 mm - - -
1788644945 25° C 37% 1013.9 hPa 0 mm - - -
1788644341 25° C 38% 1013.9 hPa 0 mm - - -
1788644103 25° C 39% 1013.9 hPa 0 mm - - -
1788643443 24.44° C 47% 1013.9 hPa 0 mm - - -
1788642903 24.44° C 47% 1013.9 hPa 0 mm - - -
1788641941 23.89° C 48% 1014.9 hPa 0 mm - - -
1788641703 23.89° C 48% 1014.9 hPa 0 mm - - -
1788641641 23.89° C 48% 1014.9 hPa 0 mm - - -
1788640503 23.89° C 48% 1014.9 hPa 0 mm - - -
1788639541 23.89° C 53% 1014.9 hPa 0 mm - - -
1788639304 23.89° C 54% 1014.9 hPa 0 mm - - -
1788638103 23.33° C 54% 1014.9 hPa 0 mm - - -
1788637441 22.78° C 56% 1014.9 hPa 0 mm - - -
1788636903 22.78° C 57% 1014.9 hPa 0 mm - - -
1788636241 22.78° C 59% 1014.9 hPa 0 mm - - -
1788635341 22.22° C 61% 1014.9 hPa 0 mm - - -
1788634741 22.22° C 62% 1014.9 hPa 0 mm - - -
1788634503 22.22° C 62% 1014.9 hPa 0 mm - - -
1788634441 22.22° C 62% 1014.9 hPa 0 mm - - -
1788634141 22.22° C 61% 1014.9 hPa 0 mm - - -
1788633307 21.67° C 62% 1014.9 hPa 0 mm - - -

* Rain latest hour (hover to see other rain measurements)
** Current wind speed in m/s (hover to see current wind gust speed)